TimeHST,TemperatureF,Dew PointF,Humidity,Sea Level PressureIn,VisibilityMPH,Wind Direction,Wind SpeedMPH,Gust SpeedMPH,PrecipitationIn,Events,Conditions,WindDirDegrees,DateUTC
12:53 AM,66.0,63.0,90,30.07,10.0,SW,4.6,-,N/A,,Mostly Cloudy,230,2013-01-24 10:53:00
1:29 AM,66.9,63.0,87,30.07,3.0,SW,4.6,-,0.03,Rain,Rain,230,2013-01-24 11:29:00
1:48 AM,66.2,64.4,94,30.06,10.0,WSW,5.8,-,0.04,,Overcast,250,2013-01-24 11:48:00
1:53 AM,66.9,63.0,87,30.06,10.0,WSW,4.6,-,0.04,,Overcast,240,2013-01-24 11:53:00
2:53 AM,66.9,64.0,90,30.05,10.0,Calm,Calm,-,0.01,,Overcast,0,2013-01-24 12:53:00
3:53 AM,66.9,64.0,90,30.05,4.0,SSW,8.1,-,0.07,Rain,Light Rain,200,2013-01-24 13:53:00
4:00 AM,66.9,64.0,90,30.05,6.0,SW,6.9,-,0.01,Rain,Light Rain,230,2013-01-24 14:00:00
4:53 AM,66.9,64.0,90,30.05,5.0,WSW,6.9,-,0.01,Rain,Light Rain,250,2013-01-24 14:53:00
5:46 AM,66.9,63.0,87,30.06,10.0,SW,6.9,-,0.01,,Overcast,220,2013-01-24 15:46:00
5:53 AM,66.9,63.0,87,30.06,10.0,SW,5.8,-,0.01,,Overcast,230,2013-01-24 15:53:00
6:53 AM,66.9,63.0,87,30.07,10.0,WSW,5.8,-,N/A,,Overcast,240,2013-01-24 16:53:00
7:53 AM,68.0,64.0,87,30.09,10.0,SW,4.6,-,0.00,,Mostly Cloudy,220,2013-01-24 17:53:00
8:53 AM,70.0,63.0,78,30.11,10.0,SW,3.5,-,N/A,,Overcast,230,2013-01-24 18:53:00
9:53 AM,71.1,64.0,78,30.12,10.0,SSW,8.1,-,0.00,,Overcast,200,2013-01-24 19:53:00
10:53 AM,75.0,63.0,66,30.11,10.0,SE,5.8,-,N/A,,Overcast,140,2013-01-24 20:53:00
11:53 AM,75.9,63.0,64,30.09,10.0,ESE,12.7,-,0.00,,Overcast,120,2013-01-24 21:53:00
12:53 PM,75.9,60.1,58,30.06,10.0,SE,10.4,-,N/A,,Overcast,140,2013-01-24 22:53:00
1:53 PM,75.9,61.0,60,30.05,10.0,SE,9.2,18.4,N/A,,Mostly Cloudy,130,2013-01-24 23:53:00
2:53 PM,75.9,61.0,60,30.04,10.0,ESE,8.1,-,N/A,,Partly Cloudy,120,2013-01-25 00:53:00
3:53 PM,75.9,62.1,62,30.05,10.0,ESE,11.5,-,N/A,,Mostly Cloudy,120,2013-01-25 01:53:00
4:53 PM,75.0,64.0,69,30.05,10.0,ESE,13.8,-,N/A,,Overcast,120,2013-01-25 02:53:00
5:53 PM,72.0,62.1,71,30.06,10.0,SE,9.2,-,N/A,,Overcast,140,2013-01-25 03:53:00
6:53 PM,70.0,62.1,76,30.09,10.0,SE,11.5,-,N/A,,Overcast,140,2013-01-25 04:53:00
7:53 PM,68.0,64.0,87,30.10,10.0,South,3.5,-,N/A,,Overcast,190,2013-01-25 05:53:00
8:53 PM,-9999,-9999,N/A,30.11,3.0,SW,4.6,-,0.03,Rain,Rain,220,2013-01-25 06:53:00
9:53 PM,66.9,64.0,90,30.12,3.0,SW,4.6,-,0.08,Rain,Rain,230,2013-01-25 07:53:00
10:26 PM,66.9,64.0,90,30.11,5.0,SW,3.5,-,0.05,Rain,Light Rain,220,2013-01-25 08:26:00
10:51 PM,66.2,64.4,94,30.11,10.0,ESE,5.8,-,0.06,,Overcast,120,2013-01-25 08:51:00
10:53 PM,66.9,64.0,90,30.11,10.0,SE,6.9,-,0.06,,Overcast,130,2013-01-25 08:53:00
11:53 PM,66.9,64.0,90,30.10,8.0,SW,9.2,-,0.01,Rain,Light Rain,220,2013-01-25 09:53:00